Wind_Speed
108 109 116 118 122 121 126 122 114 111 111 114 102 93 96 102 101 99 98 98 97 92 92 93 91 92 90 88 85 81 83 70 64 65 70 71 73 71 72 74 74 70 67 65
105 110 117 118 119 121 126 131 125 122 118 120 111 101 100 100 96 94 94 91 91 94 95 95 97 95 93 92 88 82 70 66 67 69 72 74 74 75 72 72 69 65 62 61
103 107 114 116 122 121 122 125 126 127 132 131 128 111 103 102 96 91 90 94 92 94 95 93 92 89 85 78 70 66 67 67 70 75 75 73 74 72 71 66 64 60 60 62
100 110 116 118 119 120 123 123 124 124 126 118 123 112 120 110 104 99 97 94 96 98 94 92 87 83 75 72 70 67 71 72 72 74 73 69 66 65 62 62 58 58 59 55
92 102 109 114 119 123 120 121 122 123 122 118 117 115 109 114 107 107 108 107 107 104 97 91 91 87 81 81 78 77 75 77 74 70 66 63 61 59 59 55 56 57 52 51
85 95 100 105 110 115 117 121 121 119 116 120 111 110 100 106 104 105 103 103 102 104 101 95 92 86 87 85 80 80 75 72 69 62 61 57 56 54 54 55 54 48 47 39
76 80 85 93 99 102 103 107 112 112 112 106 101 108 96 97 100 100 100 97 95 90 91 86 84 86 87 78 76 72 70 66 61 58 54 52 51 51 53 52 44 44 38 36
65 67 74 77 82 88 92 96 95 97 99 100 104 103 87 90 93 95 96 94 89 85 80 73 73 71 71 70 69 66 62 62 56 52 48 49 49 50 47 40 40 38 36 37
52 55 59 61 66 71 75 78 84 88 87 91 89 97 95 94 89 87 88 86 84 79 72 70 68 63 62 63 59 58 56 53 50 46 45 46 48 42 36 34 35 34 35 37
42 44 47 49 54 60 62 63 67 75 80 77 80 84 85 91 91 91 80 72 70 67 69 70 65 60 58 56 53 52 50 47 44 43 44 45 35 32 31 32 33 33 34 33
34 37 40 40 42 45 54 56 59 66 68 70 77 73 87 88 88 86 77 66 60 58 59 60 59 57 55 53 50 49 46 42 40 42 41 33 29 27 28 33 32 34 32 34
26 30 32 32 34 39 45 48 54 58 61 63 72 76 79 82 87 80 73 64 59 53 52 51 51 51 51 47 46 45 41 40 40 38 29 26 27 28 32 32 34 32 32 33
22 24 26 29 32 33 40 44 48 53 56 57 62 68 74 81 82 74 65 63 60 50 46 46 45 45 41 42 42 38 37 37 33 25 24 25 27 31 27 32 30 30 31 30
19 19 22 25 28 29 36 40 43 48 50 56 62 75 79 78 77 69 62 61 56 48 43 42 39 38 36 36 35 33 34 29 21 21 23 23 26 25 28 31 29 31 28 24
15 17 18 20 24 27 31 36 41 45 49 55 66 71 72 70 72 64 60 59 56 47 40 38 35 34 35 31 33 32 28 18 19 20 18 20 22 26 30 29 29 29 23 20
12 13 13 16 19 23 29 33 39 44 47 55 64 68 67 61 67 64 62 60 56 46 41 36 31 34 32 33 29 26 22 18 19 17 16 19 25 25 27 29 26 22 19 14
8 8 10 13 17 21 25 29 33 39 51 56 61 64 59 62 64 63 62 60 55 46 40 34 36 34 34 28 27 24 19 18 17 17 17 20 22 25 28 25 19 14 10 10
6 6 8 10 14 17 23 30 36 43 52 58 59 55 58 62 63 63 61 58 53 46 40 39 39 37 32 31 26 21 18 15 15 12 12 16 21 23 26 19 14 7 7 5
5 6 8 10 12 17 24 31 41 50 56 60 59 59 62 65 63 63 61 57 52 46 41 40 38 35 36 32 26 23 18 14 16 10 11 18 20 24 23 14 9 6 6 4
4 5 8 10 14 22 30 36 43 51 57 60 57 57 63 65 68 66 62 58 54 47 45 43 42 40 37 31 28 23 18 14 15 12 14 19 20 23 18 12 9 9 8 3
5 3 6 10 16 24 31 38 47 55 60 60 58 61 66 67 69 67 65 62 56 50 47 44 43 38 33 31 28 22 17 14 13 11 15 18 21 18 14 12 12 10 6 4
4 5 8 11 13 18 28 35 48 55 61 65 63 66 72 70 69 69 68 64 59 55 50 46 43 39 35 31 27 21 18 15 11 11 16 17 18 15 14 12 14 11 6 3
4 6 7 10 14 18 26 34 45 54 62 68 67 70 69 72 70 70 69 64 61 55 50 46 42 37 32 30 26 20 17 18 12 12 14 16 15 13 10 11 15 12 9 4
2 5 9 13 15 21 29 36 47 54 63 67 67 69 71 74 73 72 71 66 61 58 54 47 41 37 31 28 24 21 18 18 12 11 12 15 12 11 8 14 14 10 8 7
3 7 11 15 19 24 32 39 51 58 65 65 67 68 71 73 71 72 70 66 62 57 50 44 39 34 31 27 20 18 18 18 13 10 11 13 9 9 8 15 15 12 10 10
3 5 10 17 22 28 35 44 54 61 59 62 66 69 72 75 76 71 67 64 59 54 43 40 39 34 32 25 22 18 15 15 12 9 10 9 6 8 10 16 20 13 9 10
Wind_Direction
245 247 246 248 247 248 244 244 245 246 245 247 246 243 242 246 249 248 247 250 252 253 256 260 264 266 271 272 273 276 280 284 287 292 292 291 293 298 297 297 299 301 304 306
247 248 248 247 247 247 246 245 243 242 245 245 248 248 246 246 249 252 252 252 254 255 257 260 263 265 268 272 272 276 278 282 286 288 290 293 295 294 295 298 298 301 304 307
251 251 250 250 249 247 247 247 246 245 245 247 249 248 248 248 248 248 252 253 253 255 258 260 263 266 268 271 274 274 275 281 283 288 293 291 291 291 295 296 298 301 304 305
254 252 251 251 250 250 249 247 247 247 245 245 248 247 246 247 249 250 251 254 253 253 256 259 260 265 267 271 274 272 276 281 284 287 289 287 287 290 293 295 299 301 302 301
254 252 252 251 251 251 250 249 247 246 248 245 243 246 244 246 248 250 253 251 250 251 255 257 259 262 266 272 272 273 275 281 283 284 285 285 287 291 291 296 298 298 297 299
255 255 253 253 252 250 250 250 249 247 247 247 245 245 240 245 247 249 250 249 250 252 254 255 259 262 263 271 269 272 277 279 282 280 281 285 286 288 291 293 296 295 294 298
260 258 254 251 251 251 249 248 249 248 247 246 246 246 241 240 242 243 246 249 251 252 254 256 259 261 263 264 268 270 276 278 276 278 281 282 285 288 290 294 292 291 295 296
264 259 254 252 249 249 248 247 246 246 245 242 238 242 241 239 239 241 242 244 247 249 253 256 257 258 259 263 266 270 271 271 274 275 276 280 284 287 292 289 288 291 295 294
265 259 254 251 249 247 245 244 243 243 242 239 235 236 234 236 237 239 240 241 244 248 251 252 253 255 257 259 263 265 268 269 269 273 276 279 282 287 286 285 292 295 293 294
267 260 256 252 247 245 243 240 238 238 239 237 232 232 230 231 232 234 238 240 243 243 243 245 248 250 253 255 258 262 263 263 268 271 275 279 283 280 282 292 292 293 294 300
270 265 258 253 247 243 240 235 231 230 231 231 226 225 225 225 228 230 232 234 237 238 237 240 242 244 247 251 256 257 257 263 266 269 273 276 275 274 281 290 292 292 297 299
274 266 262 252 240 232 233 229 225 223 223 220 218 221 219 220 223 225 226 228 233 235 235 235 237 241 244 248 250 251 257 260 263 268 270 268 269 269 275 292 294 292 295 301
279 270 257 245 239 230 228 224 219 217 217 214 210 209 216 218 218 219 219 220 226 231 231 230 233 237 241 241 243 247 250 252 257 259 262 272 265 268 283 295 291 294 297 295
286 267 252 243 238 231 224 221 217 214 211 206 203 205 205 210 212 212 211 212 217 221 223 227 230 234 234 235 237 237 242 249 250 258 269 264 266 276 286 297 294 294 292 285
290 267 247 236 239 228 220 213 209 207 205 200 198 198 202 204 206 203 203 205 209 213 216 220 223 225 225 224 225 228 233 237 252 264 259 264 276 282 292 294 293 288 279 281
291 271 246 228 227 219 215 208 202 198 194 194 189 192 198 196 202 196 197 198 203 207 211 213 208 210 213 215 216 218 224 241 254 253 259 270 277 283 297 298 291 277 268 257
286 258 222 211 208 207 200 192 191 192 187 187 187 190 187 190 192 189 192 194 198 201 206 204 200 201 205 204 205 213 224 245 249 239 259 276 289 294 301 298 289 275 249 243
281 227 219 203 201 192 185 185 183 181 185 181 185 179 180 185 183 183 186 190 192 194 197 194 194 197 193 193 200 212 228 236 235 244 285 292 300 301 299 294 286 243 235 236
275 217 199 189 180 173 176 181 180 179 180 178 179 176 179 178 174 180 184 185 186 188 187 187 189 188 184 193 199 208 215 227 225 248 291 300 304 302 294 287 254 222 226 236
265 225 192 175 166 168 171 176 180 177 176 176 173 171 174 171 175 176 178 179 181 182 180 184 185 181 187 196 199 206 214 228 235 261 284 297 302 298 280 275 240 221 210 239
286 225 183 167 170 170 174 178 175 175 174 169 163 168 170 173 172 173 175 174 177 179 178 185 184 183 188 197 205 209 213 230 230 271 286 297 301 284 273 263 230 215 210 195
248 204 172 163 175 170 177 176 176 177 169 165 163 167 173 170 171 172 171 174 175 176 179 185 185 184 192 201 210 211 218 235 233 278 287 295 297 279 269 244 218 204 197 190
221 194 176 159 158 163 175 177 176 175 168 165 166 170 168 169 170 171 170 174 175 175 181 186 186 186 193 203 207 215 219 225 233 275 284 295 297 284 264 216 200 197 194 202
225 189 163 147 151 163 171 173 173 171 167 167 168 167 164 169 169 169 171 174 176 177 183 187 185 186 194 198 204 208 213 225 240 266 280 294 302 279 244 196 192 205 208 221
231 174 156 150 156 162 167 168 170 169 168 167 169 160 166 168 166 169 174 175 177 179 184 185 186 188 194 200 202 207 213 230 242 254 278 288 291 265 211 192 193 200 211 221
242 192 164 156 158 160 163 165 167 169 170 168 169 159 167 168 165 170 177 177 178 178 178 184 186 194 195 202 197 198 206 223 228 245 270 279 272 252 206 208 200 207 223 207
Height
10586 10591 10592 10590 10595 10612 10617 10622 10645 10651 10656 10650 10679 10702 10714 10710 10715 10731 10740 10746 10752 10762 10763 10765 10768 10769 10773 10782 10785 10789 10790 10789 10789 10786 10782 10778 10773 10769 10763 10758 10752 10745 10737 10730
10561 10566 10557 10561 10568 10579 10585 10598 10621 10621 10627 10630 10652 10681 10694 10688 10708 10713 10723 10733 10738 10741 10745 10749 10750 10756 10764 10769 10774 10777 10778 10777 10775 10772 10769 10768 10762 10757 10752 10747 10740 10733 10726 10718
10538 10534 10530 10533 10538 10549 10558 10568 10584 10594 10599 10612 10627 10660 10674 10677 10690 10700 10707 10712 10722 10726 10729 10730 10736 10745 10752 10760 10762 10766 10765 10763 10762 10760 10758 10755 10751 10744 10740 10735 10729 10723 10715 10709
10508 10499 10500 10503 10510 10516 10528 10539 10547 10557 10570 10605 10598 10632 10639 10659 10673 10683 10691 10696 10704 10704 10709 10717 10727 10736 10742 10748 10752 10753 10751 10751 10751 10749 10746 10742 10738 10733 10728 10723 10718 10712 10706 10700
10468 10468 10470 10476 10479 10482 10499 10504 10515 10530 10544 10560 10584 10596 10636 10640 10659 10665 10669 10672 10680 10682 10696 10710 10718 10724 10732 10735 10740 10740 10736 10738 10736 10734 10733 10728 10725 10721 10716 10713 10707 10703 10697 10690
10441 10435 10440 10442 10444 10451 10466 10472 10482 10501 10518 10528 10568 10569 10616 10622 10637 10639 10641 10646 10660 10669 10687 10698 10707 10713 10717 10723 10724 10724 10725 10724 10724 10722 10721 10718 10714 10710 10706 10702 10698 10692 10688 10682
10410 10408 10408 10409 10413 10419 10432 10443 10451 10468 10486 10514 10549 10540 10587 10603 10611 10616 10619 10630 10641 10657 10669 10688 10696 10700 10703 10705 10709 10710 10712 10711 10712 10710 10709 10706 10703 10701 10697 10693 10687 10683 10678 10674
10380 10380 10376 10383 10387 10393 10405 10414 10429 10442 10459 10484 10505 10513 10568 10572 10580 10590 10597 10611 10627 10642 10659 10676 10678 10684 10685 10690 10693 10697 10698 10699 10700 10699 10698 10696 10694 10691 10687 10683 10678 10674 10670 10666
10356 10356 10356 10362 10365 10370 10379 10395 10405 10419 10429 10444 10487 10493 10526 10543 10560 10568 10576 10597 10613 10636 10654 10656 10660 10667 10672 10675 10680 10683 10686 10687 10689 10689 10687 10686 10685 10681 10678 10674 10671 10666 10663 10658
10336 10337 10339 10343 10346 10351 10359 10371 10384 10394 10410 10429 10460 10479 10513 10521 10537 10542 10568 10591 10607 10623 10634 10637 10646 10654 10659 10663 10669 10673 10676 10678 10679 10679 10678 10676 10675 10672 10669 10667 10664 10660 10654 10650
10322 10322 10323 10326 10331 10337 10342 10351 10363 10373 10389 10408 10434 10464 10473 10497 10515 10535 10558 10577 10592 10605 10615 10624 10633 10641 10645 10651 10658 10661 10665 10668 10669 10669 10669 10668 10666 10664 10663 10660 10657 10652 10647 10645
10310 10309 10309 10313 10316 10322 10327 10337 10346 10359 10374 10393 10411 10430 10457 10483 10495 10520 10548 10570 10579 10592 10601 10611 10620 10627 10634 10642 10647 10651 10656 10658 10659 10659 10661 10660 10658 10657 10656 10653 10649 10644 10641 10638
10300 10298 10299 10301 10303 10310 10316 10323 10334 10347 10358 10378 10397 10421 10442 10461 10483 10511 10538 10555 10567 10580 10590 10600 10608 10617 10627 10632 10637 10643 10647 10648 10650 10652 10652 10651 10651 10650 10649 10646 10642 10638 10635 10632
10291 10289 10290 10293 10296 10301 10307 10314 10325 10336 10350 10363 10382 10398 10420 10442 10471 10500 10524 10542 10557 10570 10581 10590 10601 10610 10618 10624 10630 10635 10638 10641 10644 10645 10644 10644 10644 10644 10642 10639 10635 10631 10629 10627
10286 10284 10284 10288 10291 10295 10301 10308 10315 10325 10339 10354 10366 10387 10411 10434 10460 10491 10514 10531 10547 10562 10574 10584 10595 10603 10609 10617 10623 10627 10630 10635 10637 10639 10638 10638 10639 10638 10635 10631 10627 10624 10623 10621
10281 10281 10282 10284 10286 10291 10296 10302 10310 10321 10334 10348 10365 10387 10410 10437 10455 10483 10503 10523 10540 10556 10567 10578 10589 10596 10603 10610 10616 10621 10626 10629 10631 10632 10632 10633 10633 10631 10628 10624 10620 10617 10617 10616
10279 10278 10280 10281 10283 10287 10293 10299 10309 10321 10330 10346 10366 10382 10406 10429 10451 10477 10496 10516 10534 10550 10562 10572 10581 10590 10597 10605 10611 10617 10621 10624 10625 10626 10627 10628 10626 10624 10620 10617 10614 10612 10612 10612
10279 10278 10278 10280 10282 10287 10293 10298 10307 10316 10330 10344 10363 10385 10405 10425 10451 10472 10492 10510 10529 10544 10556 10567 10577 10585 10593 10601 10607 10613 10617 10619 10621 10621 10622 10621 10620 10618 10614 10612 10610 10609 10609 10609
10280 10279 10278 10279 10283 10288 10293 10299 10304 10314 10327 10343 10361 10380 10399 10420 10450 10469 10488 10507 10525 10540 10553 10564 10574 10581 10589 10596 10602 10607 10612 10614 10616 10617 10617 10615 10614 10612 10610 10608 10607 10606 10607 10606
10282 10281 10281 10281 10284 10287 10291 10296 10306 10316 10331 10346 10365 10387 10403 10425 10442 10464 10485 10505 10522 10537 10549 10560 10568 10577 10585 10592 10598 10603 10607 10609 10611 10612 10612 10611 10610 10608 10606 10605 10604 10604 10605 10604
10285 10284 10284 10284 10284 10288 10292 10297 10307 10317 10332 10351 10370 10388 10404 10423 10439 10462 10482 10501 10518 10534 10546 10556 10565 10575 10582 10589 10595 10600 10604 10606 10607 10609 10608 10607 10606 10605 10603 10602 10602 10603 10603 10602
10287 10286 10286 10286 10289 10293 10297 10303 10312 10321 10336 10353 10371 10386 10400 10421 10443 10462 10481 10499 10515 10531 10542 10552 10562 10571 10579 10585 10591 10596 10600 10602 10604 10605 10604 10604 10602 10601 10600 10599 10600 10601 10601 10600
10289 10289 10289 10290 10292 10297 10302 10308 10318 10327 10342 10355 10369 10383 10405 10423 10445 10464 10482 10499 10514 10529 10540 10549 10559 10569 10577 10582 10588 10594 10597 10599 10602 10602 10602 10601 10599 10597 10596 10597 10599 10600 10600 10601
10293 10292 10291 10292 10295 10299 10303 10310 10321 10335 10348 10362 10373 10389 10410 10425 10445 10465 10482 10499 10514 10526 10537 10547 10557 10566 10573 10580 10585 10590 10593 10596 10599 10599 10599 10597 10595 10594 10593 10594 10597 10598 10599 10600
10296 10295 10294 10295 10297 10301 10306 10314 10324 10338 10352 10367 10379 10399 10415 10431 10452 10470 10485 10499 10512 10525 10536 10545 10556 10565 10572 10579 10584 10587 10591 10594 10595 10595 10596 10595 10593 10592 10591 10592 10594 10596 10597 10598
10299 10299 10298 10298 10301 10305 10310 10319 10331 10343 10360 10373 10386 10403 10418 10435 10454 10474 10487 10501 10513 10524 10535 10545 10554 10563 10571 10577 10582 10586 10589 10591 10592 10593 10594 10592 10591 10590 10588 10589 10591 10593 10594 10594